Weather Roundup
Issued by NWS Chicago, IL

Home | Current Version | Previous Version | Graphics & Text | Print | Product List | Glossary On
Versions: 1 2 3 4 5 6 7 8 9 10 11 12 13 14 15 16 17 18 19 20 21 22 23 24 25 26 27 28 29 30 31 32 33 34 35 36 37 38 39 40 41 42 43 44 45 46 47 48 49 50
000
NZUS59 KLOT 221004
HRRLOT

CHICAGO AREA WEATHER ROUNDUP
NATIONAL WEATHER SERVICE CHICAGO/ROMEOVILLE IL
500 AM CDT SUN OCT 22 2017

NOTE: "FAIR" INDICATES FEW OR NO CLOUDS BELOW 12,000 FEET WITH NO
SIGNIFICANT WEATHER AND/OR OBSTRUCTIONS TO VISIBILITY.

* THESE STATIONS ARE NOT UNDER NWS QUALITY CONTROL. THEY ALSO MAY NOT
  REPORT WEATHER SUCH AS PRECIPITATION OR FOG.

ILZ005-006-012>014-019>023-221100-
NORTHEAST ILLINOIS

CITY           SKY/WX    TMP DP  RH WIND       PRES   REMARKS
OHARE          CLOUDY    68  57  68 S18       29.93F
MIDWAY         MOCLDY    67  57  70 S9        29.95S
AURORA         CLOUDY    66  58  75 SE13      29.93S
LANSING*       CLOUDY    64  56  75 S13       29.98S
JOLIET*        CLOUDY    68  60  74 S12G18    29.94F
WAUKEGAN       PTCLDY    67  57  70 S14       29.91F
DUPAGE AIRPORT CLOUDY    67  59  75 S15       29.93F
WHEELING       CLOUDY    68  59  73 S13       29.95S
KANKAKEE*      MOCLDY    63  55  76 SE8       29.97S
MORRIS*        CLOUDY    65  57  75 S13G20    29.92S
NORTHERLY ISL    N/A     65  53  65 S7          N/A
$$

WIZ051-052-058>065-066-070>072-221100-
SOUTHEAST WISCONSIN

CITY           SKY/WX    TMP DP  RH WIND       PRES   REMARKS
MILWAUKEE      MOCLDY    61  56  83 SE8       29.91F
KENOSHA*       CLOUDY    67  56  67 S10       29.92S
RACINE*        CLOUDY    61  55  81 S12       29.93F
WEST BEND      CLOUDY    64  54  68 S8        29.90S
$$

INZ001>003-010>013-019-020-221100-
NORTHWEST INDIANA

CITY           SKY/WX    TMP DP  RH WIND       PRES   REMARKS
GARY*          MOCLDY    66  57  72 S14G26    29.98S
MICHIGAN CITY* NOT AVBL
RENSSELAER*    NOT AVBL
VALPARAISO     CLOUDY    65  53  65 S7        30.01F
$$

LMZ740>746-221100-
SOUTHERN LAKE MICHIGAN

STATION/POSITION TIME  SKY/WX   TEMP WIND        PRES    VSBY
                                AIR  DIR/SP/G
                 (UTC)          (F)  (DEG/KT/KT) (MB)    (MI)
HARRISON CRIB    0940            65  170/ 15/ 16   N/A
BURNHAM HARBOR   1000            65  160/ 11/ 15   N/A
CALUMET HARBOR   0930            65  170/  9/ 13 1014.2S
BURNS HARBOR     0940            67  180/ 14/ 24 1015.2F
MICHIGAN CITY    0940            65  160/ 12/ 15   N/A
$$

ABBREVIATIONS USED IN REMARKS
   TC - TEMPERATURE IN CELSIUS
  WCI - WIND CHILL INDEX
   HX - HEAT INDEX
  VSB - VISIBILITY
$$




USA.gov is the U.S. government's official web portal to all federal, state and local government web resources and services.